Location: La Trinit�
(48.1620°N, 3.4512°W)
Time: 09:28:29
(UTC+00:00)

Cosmos 1553 Rocket - Pass Details

Date: 08 May 2021
Orbit: 942 x 1007 km, 82.9° (Epoch: 12 June)

Event Time Altitude Azimuth Distance (km) Brightness Sun altitude
Rises 20:21:58 0° 184° (S) 3,607 6.7 -7.1°
Reaches altitude 10° 20:24:25 10° 183° (S) 2,672 6.0 -7.5°
Maximum altitude 20:30:32 83° 97° (E) 976 4.0 -8.3°
Drops below altitude 10° 20:36:48 10° 10° (N) 2,732 6.8 -9.1°
Sets 20:39:20 0° 10° (N) 3,693 7.5 -9.4°
